Wind_Speed
91 92 93 94 95 96 96 97 97 98 98 99 99 99 99 100 100 100 100 100 100 101 101 101 101 101 101 101 102 102 102 102 102 102 102 102 102 102 102 102 102 102
92 92 93 93 94 94 95 95 96 96 96 97 97 97 97 97 98 98 98 98 98 98 98 98 98 98 98 99 99 100 100 100 100 101 101 101 102 102 103 103 104 104
90 90 90 90 90 90 90 90 91 91 91 91 91 91 92 92 92 92 92 92 92 92 92 92 92 93 93 93 94 94 95 95 96 97 97 98 99 99 100 101 102 103
84 84 84 84 84 84 84 84 84 84 85 85 85 85 85 85 85 86 86 86 86 85 86 86 86 87 87 87 88 88 89 89 90 91 92 92 94 95 96 97 98 100
77 77 78 78 78 78 79 79 80 80 81 81 81 81 82 82 82 82 82 82 82 82 82 82 82 83 83 83 84 84 84 84 85 86 86 87 88 89 90 92 93 94
73 74 74 75 75 76 77 77 78 78 79 80 80 80 81 81 81 81 81 81 81 81 81 81 81 81 81 81 81 81 81 82 82 82 82 83 83 84 85 87 88 89
72 73 74 75 75 76 77 77 78 79 79 80 80 81 81 81 81 82 82 82 82 82 82 82 82 81 82 81 81 81 81 81 81 81 81 81 81 81 82 83 84 85
73 74 75 75 76 77 78 79 79 80 81 81 82 82 83 83 83 83 84 84 84 84 84 84 84 83 83 83 82 82 82 82 82 82 81 81 80 80 80 81 81 81
74 75 76 77 78 79 80 80 81 82 83 83 84 84 85 86 86 86 86 86 86 86 86 87 86 86 86 86 85 85 84 84 84 84 83 82 82 81 81 81 81 80
75 76 77 78 79 80 80 81 82 83 84 85 85 86 87 87 88 88 89 89 89 89 89 89 89 89 88 88 88 88 88 87 87 86 86 85 84 83 83 83 82 81
76 77 78 78 79 80 81 82 82 83 84 85 85 86 87 87 88 89 90 90 91 91 91 91 91 91 91 91 91 91 91 90 90 89 89 88 87 87 86 85 85 83
76 77 77 78 79 79 79 80 80 81 81 82 83 83 84 85 86 87 88 88 89 90 91 91 92 92 93 93 93 94 94 93 93 92 92 91 90 90 89 89 88 86
74 74 74 74 74 74 75 75 76 77 78 79 81 81 82 83 84 84 85 86 87 87 88 89 90 90 91 92 93 94 95 95 95 95 95 94 93 92 91 91 90 89
69 69 68 69 70 71 72 74 75 77 78 79 80 81 82 82 83 83 83 84 84 84 85 85 86 87 87 89 90 92 93 95 95 96 97 96 96 95 94 93 92 91
63 64 66 68 70 71 73 74 76 77 78 79 80 80 81 81 81 81 81 81 81 81 81 81 82 82 83 84 86 87 89 91 92 94 95 96 96 96 95 95 94 93
61 64 66 68 70 72 73 74 75 76 77 77 78 78 78 78 78 78 78 77 77 77 77 77 77 78 78 80 81 83 85 86 88 89 91 92 93 94 94 94 95 95
62 64 67 68 70 70 71 72 73 74 75 75 75 74 74 74 73 72 72 72 72 71 71 72 72 73 74 75 77 79 81 82 83 83 85 86 87 88 90 91 92 94
62 65 67 68 69 69 70 71 71 72 73 73 72 71 70 69 68 68 67 67 67 67 67 67 68 69 70 71 72 74 76 78 79 79 79 80 80 82 84 86 88 90
63 65 66 67 68 68 69 70 71 71 72 71 69 68 66 65 64 64 64 64 64 63 62 62 62 62 63 64 66 67 68 70 73 74 73 73 74 76 78 80 82 84
63 65 66 67 67 68 69 70 70 71 70 69 67 65 64 62 62 61 60 59 58 57 56 55 54 55 55 56 58 59 60 62 64 65 65 65 66 68 70 72 74 76
63 65 66 67 68 68 69 70 70 70 69 67 65 63 62 60 59 57 55 53 52 51 50 48 48 49 50 50 52 53 54 55 56 57 57 58 58 59 61 63 65 68
63 65 66 67 68 69 69 70 70 70 68 66 63 62 60 58 55 52 50 48 47 47 46 44 44 46 47 47 48 48 49 50 50 50 51 51 51 51 53 55 57 59
63 65 66 68 69 70 70 71 71 70 68 66 63 60 57 54 51 48 45 44 44 44 44 42 42 43 44 44 43 44 45 46 45 45 45 45 45 46 48 49 50 52
63 65 67 68 70 71 71 72 72 71 69 66 63 60 55 51 48 44 42 41 41 41 41 41 39 39 39 39 40 41 42 43 42 41 41 41 42 43 44 45 45 46
62 65 67 69 70 71 72 73 73 72 70 67 64 60 54 49 45 42 38 38 38 38 39 40 38 36 35 36 36 38 39 40 39 39 38 38 40 40 40 41 42 43
62 64 67 69 71 72 73 73 73 73 71 69 65 60 55 48 44 40 36 35 35 36 37 39 38 35 33 33 34 35 37 38 38 37 37 38 38 37 35 36 38 39
Wind_Direction
283 282 282 282 282 281 281 281 280 280 280 279 279 279 278 278 278 277 277 277 276 276 275 275 275 274 274 273 272 272 271 271 270 270 270 269 269 268 268 267 267 266
282 282 282 282 282 282 282 281 281 281 281 281 280 280 279 279 279 279 278 278 277 277 277 276 275 275 274 274 273 272 272 271 271 270 269 269 269 268 268 267 267 266
284 284 284 284 284 284 284 283 283 283 282 282 282 281 281 280 280 279 279 279 278 278 277 277 276 276 275 274 274 273 272 271 271 270 269 269 268 268 267 266 266 266
287 287 287 287 287 286 286 286 285 285 284 284 283 282 282 281 281 280 279 279 278 278 277 277 276 276 275 274 274 273 272 272 271 270 269 269 268 267 267 266 265 265
291 290 290 289 289 288 288 287 287 286 286 285 284 284 283 282 281 281 280 279 278 278 277 276 275 275 274 273 273 272 272 271 270 270 269 268 268 267 266 265 265 264
293 293 292 292 291 290 289 288 288 287 286 286 285 284 283 283 282 281 280 279 278 277 277 275 275 274 273 272 271 271 270 270 269 268 268 267 267 266 265 265 264 263
295 294 293 292 292 291 290 289 288 287 287 286 285 285 284 283 282 281 281 280 279 278 277 276 275 274 273 272 271 270 269 269 268 267 267 266 266 265 265 264 263 263
294 294 293 292 292 291 290 290 289 288 288 287 286 285 284 283 282 281 280 280 279 278 277 276 275 274 273 272 272 271 270 269 268 267 266 265 265 264 264 263 263 262
295 295 294 293 293 292 291 291 290 289 288 287 287 286 285 284 283 282 281 280 279 278 277 276 275 274 273 273 272 271 270 269 268 267 266 265 264 264 263 262 262 262
296 296 295 295 294 293 293 292 291 290 289 288 287 286 285 284 283 282 281 280 279 278 277 276 275 274 273 272 272 270 269 268 268 267 266 266 265 264 263 262 261 261
297 297 296 296 295 294 294 293 292 292 291 290 289 287 286 285 284 283 282 280 279 278 277 276 275 274 273 272 271 270 269 268 267 266 266 265 264 264 263 262 261 261
299 298 298 297 297 296 295 295 294 293 293 291 290 289 288 287 285 284 283 281 280 279 277 276 275 274 272 271 270 269 269 268 267 266 265 264 263 263 262 262 261 261
301 301 300 300 299 299 298 298 297 296 295 294 293 291 290 289 287 286 285 283 282 280 279 277 276 274 273 271 270 269 268 267 266 265 264 263 263 262 262 261 261 260
303 303 303 303 302 302 302 301 300 299 298 296 295 294 292 291 289 288 286 285 283 282 280 279 277 275 274 272 271 269 268 267 266 264 263 263 262 261 261 261 260 260
306 306 306 306 306 305 304 303 302 301 299 298 297 296 295 293 292 290 288 287 285 283 282 280 278 277 275 273 272 270 268 267 266 264 264 263 262 261 260 260 260 259
310 310 310 309 309 308 307 306 305 303 302 301 300 298 297 295 294 292 290 288 287 285 283 282 280 278 276 275 273 271 269 267 266 265 264 263 262 262 261 260 259 258
313 313 313 313 312 311 311 309 308 307 306 304 303 301 300 298 296 294 292 290 288 286 284 282 281 279 277 276 274 273 271 270 268 266 265 264 263 262 261 260 259 258
316 317 317 317 316 316 315 314 312 311 310 308 307 305 303 301 299 297 294 292 290 288 286 284 282 281 279 277 276 274 273 272 271 268 267 265 264 263 261 260 259 258
321 321 321 321 321 320 319 318 317 316 314 313 311 309 307 305 302 299 297 295 292 290 288 286 285 283 281 279 277 276 275 274 273 271 270 268 266 264 262 261 260 259
324 324 325 325 324 324 323 322 321 320 318 317 315 313 310 308 305 302 300 297 295 293 291 289 287 285 283 281 280 279 277 276 275 274 273 271 269 267 265 264 262 261
326 327 327 328 327 327 326 326 325 324 322 320 319 316 314 311 308 305 302 300 297 295 293 291 289 287 285 283 282 282 281 279 279 278 276 275 273 272 270 268 265 263
327 328 329 330 330 330 329 329 328 328 326 324 322 320 318 314 311 308 305 302 299 297 295 293 291 289 287 286 285 284 283 281 281 280 279 278 277 275 272 270 268 266
328 329 331 331 332 332 332 331 331 331 330 328 326 324 321 318 314 311 308 304 301 299 296 294 292 290 288 288 287 285 283 282 282 281 280 280 278 275 273 271 269 268
329 330 332 333 333 333 333 334 334 335 333 331 330 328 325 321 317 314 311 307 303 300 297 294 292 290 289 289 288 286 285 284 284 282 281 280 277 275 273 272 271 269
329 331 333 334 335 335 335 335 336 337 336 334 333 331 328 324 320 317 313 308 304 301 297 294 293 292 292 291 290 288 288 288 286 285 283 280 276 275 274 273 271 269
330 332 334 335 336 336 336 336 338 338 338 336 335 334 330 327 323 320 316 310 305 302 299 296 296 297 296 294 293 292 291 289 288 287 284 280 278 277 275 273 271 269
Height
5452 5449 5445 5441 5437 5433 5430 5426 5423 5419 5417 5414 5411 5408 5406 5403 5401 5398 5396 5393 5392 5390 5388 5387 5385 5384 5383 5383 5382 5382 5383 5383 5382 5382 5381 5381 5381 5381 5382 5382 5382 5383
5439 5435 5431 5427 5423 5419 5415 5412 5408 5405 5402 5399 5396 5393 5391 5388 5385 5383 5380 5378 5376 5375 5373 5371 5370 5368 5367 5367 5366 5366 5366 5366 5366 5365 5365 5366 5366 5366 5366 5366 5366 5367
5426 5422 5418 5413 5409 5405 5401 5398 5394 5391 5388 5385 5381 5378 5376 5374 5371 5368 5366 5363 5362 5360 5358 5356 5354 5353 5352 5351 5350 5350 5350 5350 5350 5349 5349 5350 5350 5350 5351 5350 5351 5352
5412 5408 5404 5400 5396 5392 5388 5384 5381 5377 5374 5371 5368 5364 5362 5359 5357 5355 5352 5350 5348 5346 5344 5342 5340 5338 5337 5336 5335 5335 5335 5334 5334 5333 5333 5334 5334 5334 5335 5335 5336 5336
5400 5396 5392 5388 5384 5379 5376 5372 5368 5364 5361 5357 5354 5351 5348 5345 5343 5341 5338 5336 5334 5333 5331 5329 5327 5325 5323 5322 5321 5320 5320 5319 5319 5317 5317 5319 5318 5318 5319 5319 5320 5321
5389 5384 5380 5376 5372 5368 5364 5360 5356 5352 5348 5345 5342 5338 5335 5332 5329 5327 5324 5323 5321 5319 5317 5315 5313 5311 5309 5308 5307 5307 5306 5305 5305 5303 5303 5304 5304 5303 5304 5304 5305 5306
5378 5374 5369 5365 5360 5356 5352 5348 5344 5340 5336 5333 5329 5325 5322 5319 5316 5313 5311 5309 5307 5304 5303 5301 5299 5297 5295 5294 5294 5293 5292 5291 5290 5290 5289 5290 5290 5290 5290 5289 5290 5291
5367 5363 5358 5353 5349 5344 5340 5335 5331 5327 5323 5320 5316 5312 5308 5305 5302 5300 5297 5294 5292 5290 5287 5285 5284 5282 5281 5280 5279 5279 5277 5276 5276 5275 5275 5276 5276 5276 5276 5275 5276 5277
5356 5352 5347 5342 5337 5332 5327 5322 5318 5314 5309 5305 5302 5298 5294 5291 5287 5285 5282 5279 5277 5275 5272 5270 5268 5267 5266 5265 5264 5263 5262 5261 5261 5260 5260 5261 5262 5262 5262 5262 5262 5264
5345 5340 5335 5330 5325 5319 5314 5310 5305 5300 5296 5291 5287 5283 5279 5275 5272 5269 5266 5263 5261 5258 5256 5254 5252 5251 5250 5249 5247 5246 5246 5245 5245 5245 5245 5246 5246 5247 5248 5248 5248 5250
5334 5329 5323 5318 5312 5307 5302 5297 5292 5287 5282 5277 5272 5268 5264 5260 5256 5252 5249 5246 5243 5241 5239 5237 5235 5234 5233 5232 5230 5228 5227 5228 5228 5229 5229 5230 5230 5231 5232 5233 5234 5236
5322 5317 5311 5306 5300 5295 5289 5284 5279 5274 5268 5263 5258 5253 5249 5245 5240 5236 5232 5229 5226 5223 5221 5219 5218 5217 5215 5214 5212 5210 5209 5210 5210 5211 5212 5212 5214 5215 5216 5217 5219 5222
5311 5305 5300 5294 5289 5283 5278 5272 5267 5261 5255 5250 5244 5239 5234 5230 5225 5221 5216 5212 5209 5206 5203 5201 5199 5198 5197 5195 5193 5191 5191 5191 5192 5192 5193 5194 5196 5198 5200 5202 5204 5206
5301 5295 5289 5284 5278 5273 5267 5261 5255 5249 5242 5236 5230 5225 5220 5215 5209 5205 5200 5196 5192 5189 5186 5183 5181 5180 5178 5175 5174 5173 5172 5172 5172 5172 5173 5176 5178 5182 5184 5186 5189 5191
5291 5286 5280 5274 5268 5262 5256 5250 5243 5236 5229 5223 5216 5210 5205 5199 5194 5188 5184 5180 5176 5173 5169 5166 5164 5162 5160 5157 5155 5154 5152 5152 5152 5153 5155 5158 5161 5164 5167 5169 5172 5175
5283 5277 5271 5265 5258 5252 5246 5238 5231 5224 5217 5210 5203 5197 5191 5184 5179 5173 5168 5164 5160 5157 5154 5150 5148 5145 5143 5140 5137 5135 5133 5133 5135 5137 5138 5140 5143 5147 5150 5152 5154 5156
5275 5269 5262 5255 5249 5242 5235 5227 5220 5212 5205 5198 5191 5184 5177 5171 5165 5159 5154 5149 5145 5142 5139 5136 5133 5130 5126 5125 5122 5117 5115 5116 5118 5121 5123 5125 5128 5130 5132 5134 5135 5136
5267 5260 5254 5246 5239 5232 5224 5216 5209 5201 5193 5186 5179 5172 5165 5158 5152 5146 5141 5135 5131 5129 5126 5122 5119 5115 5112 5110 5107 5103 5102 5100 5100 5103 5107 5110 5113 5113 5114 5116 5117 5119
5259 5252 5245 5238 5230 5223 5215 5206 5198 5190 5181 5174 5167 5160 5153 5147 5140 5134 5128 5123 5118 5116 5113 5110 5106 5102 5099 5097 5093 5091 5090 5087 5085 5088 5092 5095 5096 5096 5097 5099 5100 5102
5252 5245 5238 5230 5223 5215 5207 5198 5189 5181 5172 5163 5156 5149 5142 5135 5129 5123 5117 5112 5107 5104 5102 5099 5095 5091 5089 5086 5082 5081 5079 5076 5074 5076 5078 5080 5081 5082 5083 5084 5085 5085
5244 5238 5231 5223 5215 5207 5199 5190 5180 5172 5163 5154 5147 5139 5132 5125 5119 5113 5107 5102 5097 5094 5092 5090 5086 5082 5080 5077 5074 5072 5070 5067 5066 5066 5067 5068 5069 5070 5070 5070 5070 5070
5237 5231 5224 5216 5208 5199 5191 5182 5173 5164 5155 5146 5138 5131 5123 5116 5109 5104 5099 5094 5090 5085 5083 5082 5078 5074 5072 5069 5067 5065 5062 5059 5059 5059 5058 5059 5059 5059 5058 5057 5058 5058
5230 5224 5217 5209 5200 5192 5183 5174 5165 5156 5147 5138 5131 5123 5115 5108 5102 5096 5091 5086 5082 5078 5075 5074 5071 5067 5064 5062 5060 5057 5054 5052 5052 5052 5051 5051 5050 5049 5048 5048 5049 5048
5224 5217 5210 5202 5193 5184 5175 5166 5157 5148 5139 5130 5123 5116 5109 5101 5095 5090 5085 5080 5075 5071 5068 5066 5064 5061 5058 5056 5053 5050 5047 5046 5045 5045 5045 5044 5042 5041 5040 5040 5040 5040
5218 5211 5203 5195 5187 5178 5168 5159 5150 5141 5132 5123 5115 5108 5101 5095 5089 5084 5080 5074 5069 5065 5061 5058 5057 5056 5053 5051 5048 5045 5042 5039 5038 5038 5038 5036 5034 5034 5034 5033 5032 5031
5212 5205 5197 5189 5181 5172 5162 5153 5144 5135 5125 5116 5108 5101 5094 5088 5083 5078 5074 5069 5063 5059 5055 5051 5050 5050 5049 5046 5043 5040 5037 5034 5032 5031 5030 5028 5028 5028 5028 5027 5025 5024